Location: Camden Lake
(44.4269°N, 76.8469°W)
Time: 11:01:33
(UTC-04:00)

Daily predictions for brighter satellites

Satellite Brightness Start Highest point End
(mag) Time Altitude Azimuth Time Altitude Azimuth Time Altitude Azimuth
Meteor 2-6 Rocket 4.5 20:56:02 10° NNW 21:02:01 86° W 21:07:48 10° S
Cosmos 1844 Rocket 2.9 20:57:07 10° SSW 21:02:47 80° WNW 21:08:27 10° NNE
deb Chang Zheng 4 4.4 20:59:45 10° NE 21:03:42 31° E 21:07:39 10° SSE
Cosmos 1825 2.7 21:00:55 10° SSE 21:04:28 38° E 21:08:03 10° NNE
FENGYUN 3A 4.3 20:59:23 10° S 21:04:42 58° W 21:10:01 10° NNW
Cosmos 2278 Rocket 2.3 21:02:03 10° S 21:07:35 57° ESE 21:13:10 10° NNE
ERS-1 Rocket 3.0 21:05:32 10° SSE 21:10:34 75° ENE 21:15:37 10° N
Timation 2 Rocket 4.1 21:06:45 10° NNW 21:12:43 61° ENE 21:18:38 10° SE
Cosmos 1420 Rocket 4.4 21:08:46 10° S 21:13:40 42° ESE 21:18:34 10° NE
Cosmos 1844 3.9 21:08:35 10° SSW 21:14:22 86° WNW 21:20:13 10° NNE
ISS -3.2 21:11:24 10° WSW 21:14:40 83° NNW 21:17:55 10° ENE
H-2A R/B 2.4 21:10:41 10° SE 21:14:47 49° ENE 21:18:50 10° N
Cosmos 1140 Rocket 3.6 21:09:48 10° NNW 21:14:56 63° ENE 21:20:03 10° SSE
Okean 3 3.6 21:12:50 10° N 21:17:04 57° E 21:21:14 10° SSE
Cosmos 407 Rocket 4.4 21:12:11 10° NNW 21:17:17 49° WSW 21:22:23 10° S
APEX 4.1 21:14:53 10° S 21:18:40 39° ESE 21:23:31 10° NE
Cosmos 2154 Rocket 4.0 21:13:35 10° S 21:19:45 74° E 21:25:57 10° NNE
Cosmos 1939 Rocket 2.8 21:16:08 10° SSE 21:20:00 68° ENE 21:23:57 10° N
Cosmos 489 Rocket 4.5 21:14:43 10° NNW 21:20:57 76° ENE 21:27:09 10° SSE
Cosmos 1238 Rocket 2.6 21:18:13 10° N 21:21:36 67° E 21:25:36 10° SSE
COSMOS 2487 2.6 21:17:59 10° NNW 21:21:37 78° WSW 21:25:13 10° SSE
BREEZE-M TANK 4.4 20:56:59 10° WSW 21:22:16 88° N 21:26:58 10° E
Abrixas 3.9 21:21:12 10° S 21:23:30 20° SE 21:25:47 10° E
Cosmos 2082 Rocket 2.7 21:20:22 10° NNW 21:25:52 47° ENE 21:30:58 12° SE
SPOT 5 3.4 21:23:58 10° SSE 21:29:09 56° ENE 21:34:24 10° N
Cosmos 1452 Rocket 3.9 21:29:41 10° SSW 21:34:55 68° WNW 21:40:13 10° NNE
Lacrosse 5 3.3 21:35:43 10° SSE 21:38:42 16° ESE 21:41:42 10° E
Cosmos 1184 Rocket 2.8 21:36:00 10° S 21:39:20 87° W 21:42:43 10° N
Intercosmos 25 3.3 21:38:12 10° SSE 21:41:25 41° E 21:44:27 10° NNE
H-2A R/B 3.6 21:40:11 12° ESE 21:43:44 22° ENE 21:47:41 10° NNE
Cosmos 2297 3.8 21:40:41 10° S 21:46:17 60° ESE 21:51:55 10° NNE
MetOp-B 4.2 21:43:39 12° SSE 21:48:35 68° ENE 21:53:55 10° N
Meteor 1-14 Rocket 4.4 21:45:07 10° S 21:50:36 54° E 21:56:01 10° NNE
Meteor 2-13 Rocket 4.4 21:46:50 10° S 21:52:58 79° E 21:59:09 10° N
Okean 2 Rocket 3.1 21:49:36 10° S 21:54:01 88° WNW 21:58:27 10° N
SL-8 R/B 4.5 21:51:08 10° WNW 21:55:51 52° N 22:00:34 10° ENE
BREEZE-M DEB (TANK) 3.0 21:54:40 10° WNW 21:56:31 30° N 21:59:04 10° ENE
EO 1 Delta rocket 4.4 21:51:31 10° N 21:57:31 75° WNW 22:02:23 10° SSW
Cosmos 1782 Rocket 4.0 21:54:28 10° SSW 21:58:53 64° W 22:03:21 10° N
SPOT 1/Viking Rocket 3.7 21:55:17 17° SE 21:59:12 59° ENE 22:04:21 10° N
Cosmos 1242 Rocket 3.1 21:57:52 10° NNW 22:01:31 58° W 22:04:46 13° S
USA 229 DEB 3.8 21:54:25 10° NW 22:01:35 85° NE 22:07:00 19° SE
USA 229 3.8 21:54:32 10° NW 22:01:41 85° NE 22:07:06 19° SE
Cosmos 1850 Rocket 4.4 21:59:35 10° NNW 22:04:52 65° WSW 22:09:25 14° S
Cosmos 1975 Rocket 4.1 22:07:30 10° NNW 22:11:38 43° W 22:15:44 10° SSW
ARGOS 3.2 22:09:05 20° SSE 22:12:46 68° ENE 22:18:06 10° N
YAOGAN 6 2.6 22:10:46 22° S 22:12:57 75° W 22:16:30 10° NNW
Cosmos 2369 Rocket 3.9 22:14:07 14° E 22:14:07 14° E 22:16:37 10° ENE
OAO 3 Rocket 4.3 22:10:21 10° SW 22:14:28 26° S 22:15:30 24° SSE
Lacrosse 5 rocket 1.8 22:11:18 10° SSW 22:14:50 33° SE 22:18:15 10° ENE
Cosmos 2218 Rocket 4.0 22:08:48 10° S 22:15:11 78° E 22:21:36 10° N
BREEZE-M DEB (TANK) 4.2 22:13:12 10° W 22:16:14 51° N 22:24:44 10° ENE
CZ-4 R/B 4.1 22:13:18 10° NNE 22:17:48 45° E 22:20:06 25° SSE
PSLV R/B 3.9 22:16:18 22° SSW 22:17:54 46° W 22:20:46 10° NNW
SL-08 RB Rocket 3.8 22:15:38 25° SE 22:18:11 63° ENE 22:22:48 10° N
Meteor 2-8 Rocket 4.5 22:12:27 10° N 22:18:37 69° E 22:22:43 22° SSE
Cosmos 1959 Rocket 4.4 22:17:18 10° S 22:23:26 89° E 22:29:34 10° N
Cosmos 1536 Rocket 3.5 22:20:10 10° N 22:24:41 82° E 22:27:02 28° SSE
AVUM R/B 3.5 22:21:23 10° NNW 22:24:54 71° WSW 22:26:05 38° S
CZ-4 SHROUD 4.2 22:23:32 22° SSW 22:25:09 40° W 22:28:07 10° NNW
Gbstr 26 Del rocket 3.3 22:19:52 10° WNW 22:25:11 74° NNE 22:27:30 28° ESE
Cosmos 1727 Rocket 3.9 22:20:10 10° N 22:26:22 78° E 22:30:27 23° SSE
Cosmos 1331 Rocket 4.0 22:27:09 21° S 22:30:24 55° ESE 22:35:26 10° NNE
Landsat 7 4.0 22:28:19 30° SE 22:30:28 59° ENE 22:35:10 10° N
NOSS 8 (H) 4.4 22:30:35 19° SSW 22:32:55 67° SE 22:36:45 10° NE
IGS 5A 4.3 22:32:35 31° ESE 22:33:44 37° ENE 22:37:35 10° N
DELTA 2 DEB (DPAF) 4.2 22:34:27 35° SE 22:36:10 63° ENE 22:40:36 10° N
CZ-4C R/B 3.5 22:36:09 40° SE 22:37:23 61° ENE 22:41:33 10° N
Cosmos 1110 Rocket 3.9 22:35:43 16° SSW 22:39:58 77° ESE 22:45:12 10° NNE
ATLAS 2AS CENTAUR R/B 4.4 22:32:53 10° NNW 22:40:03 32° NNE 22:46:58 10° E
Cosmos 1833 Rocket 3.1 22:36:28 10° NNW 22:41:59 58° WSW 22:45:06 26° S
Meteor 1-20 Rocket 4.1 22:39:25 23° S 22:43:00 77° E 22:48:31 10° NNE
Cosmos 1400 Rocket 4.2 22:44:16 25° E 22:44:16 25° E 22:47:22 10° NE
Terra 2.0 22:44:32 38° SE 22:46:10 59° ENE 22:50:52 10° N
Cosmos 1339 Rocket 4.4 22:40:13 10° N 22:46:25 89° W 22:50:00 28° S
NOSS 3-1 (C) 4.1 22:40:53 10° NW 22:48:21 72° NE 22:53:00 29° SE
USA 245 4.4 22:46:35 24° SSW 22:48:22 40° W 22:52:34 10° NNW
Cosmos 1536 4.4 22:49:24 22° ENE 22:49:24 22° ENE 22:51:57 10° NE
Cosmos 1025 Rocket 4.0 22:47:25 10° N 22:51:24 32° ENE 22:52:00 31° E
ISS -1.0 22:48:38 10° WNW 22:51:25 26° NNW 22:54:14 10° NE
DMSP B5D2-2 4.2 22:46:33 10° NNE 22:51:40 52° E 22:53:13 39° SSE
Cosmos 2278 Rocket 4.4 22:47:23 10° WSW 22:52:03 26° NW 22:56:45 10° N
USA 234 3.8 22:52:00 10° ENE 22:57:48 33° SE 22:58:07 33° SE
Timation 1 Rocket 4.4 22:52:41 10° SSW 22:58:41 77° WNW 23:04:43 10° NNE
Abrixas 3.4 22:56:11 10° WSW 22:58:22 43° W 22:58:22 43° W
Cosmos 1821 Rocket 4.4 22:57:21 35° SE 22:59:21 46° E 23:05:13 10° NNE
CZ-4B R/B 4.2 22:59:24 10° N 23:04:09 49° WNW 23:08:19 13° SW
Cosmos 1300 Rocket 3.6 23:04:46 42° SSW 23:06:14 81° W 23:10:42 10° N
Cosmos 1934 Rocket 4.4 23:05:08 36° ESE 23:06:36 42° E 23:12:16 10° NNE
Cosmos 1486 Rocket 4.0 23:02:16 10° NNW 23:07:38 80° WSW 23:09:20 45° S
Spot 4 3.8 23:06:34 49° SE 23:07:47 73° ENE 23:12:38 10° N
Cosmos 1354 Rocket 4.2 23:03:52 10° NNW 23:09:05 58° ENE 23:10:29 43° ESE
Cosmos 2082 Rocket 3.7 23:04:56 10° NW 23:09:41 28° WSW 23:12:49 17° SSW
Okean 1 3.8 23:05:43 10° NNW 23:09:42 54° W 23:10:39 43° SW
Cosmos 2285 Rocket 4.3 23:12:34 40° SE 23:14:02 47° ESE 23:20:08 10° NNE
Cosmos 1812 3.8 23:10:39 10° NNW 23:14:15 38° W 23:15:11 32° SW
Okean 1 Rocket 3.1 23:13:53 47° SSW 23:15:08 76° W 23:19:37 10° N
Cosmos 2123 Rocket 4.4 23:10:07 10° N 23:16:11 48° ENE 23:17:58 38° ESE
Cosmos 1602 3.8 23:16:36 65° ENE 23:16:36 65° ENE 23:20:17 10° NNE
Cosmos 1356 3.9 23:20:42 55° NNE 23:20:42 55° NNE 23:23:36 10° NNE
Lacrosse 5 1.7 23:15:54 10° SW 23:20:59 86° SE 23:26:07 10° NE
Genesis I 3.3 23:21:07 62° WSW 23:21:43 79° NW 23:25:45 10° NNE
H-2A R/B 2.5 23:20:50 37° SSW 23:22:46 56° W 23:27:57 10° NNW
Meteor 2-4 Rocket 3.8 23:19:42 10° N 23:25:08 62° ENE 23:26:19 50° SE
Okean 1-7 Rocket 4.3 23:29:48 10° NNW 23:34:05 45° W 23:34:56 40° SW
Cosmos 1302 Rocket 4.2 23:32:20 34° SW 23:34:37 70° WNW 23:39:56 10° NNE
Cosmos 1544 Rocket 4.1 23:36:48 45° ENE 23:36:48 45° ENE 23:40:27 10° NNE
Meteor 2-15 Rocket 4.5 23:32:33 10° N 23:38:41 67° E 23:40:05 51° SE
SL-8 R/B 3.7 23:33:57 10° WNW 23:38:47 77° NNE 23:39:35 60° E
ASTEX 1 3.8 23:38:11 10° N 23:43:04 58° W 23:44:25 43° SW
Meteor 2-14 Rocket 4.3 23:42:33 53° S 23:44:06 80° E 23:50:17 10° N
Cosmos 1633 3.2 23:44:52 55° N 23:44:52 55° N 23:47:50 10° N
Meteor 2-15 4.3 23:38:34 10° N 23:44:44 85° E 23:46:10 55° SSE
Iridium 4 Rocket 3.8 23:42:02 10° N 23:47:58 82° W 23:49:23 54° SSW
Cosmos 1315 Rocket 3.3 23:51:14 56° NNE 23:51:14 56° NNE 23:54:24 10° NNE
Lacrosse 5 rocket 2.6 23:50:27 10° W 23:54:01 36° NNW 23:57:29 10° NE
